Weather History for Juliana Airport, St. Martin

Change the Weather History Date:

Monday, August 30, 2010

  Actual Average Record
Temperature  
Mean Temperature 82 °F -  
Max Temperature 86 °F 87 °F 91 °F (2001)
Min Temperature 77 °F 78 °F 75 °F (2014)
Cooling Degree Days 16    
Growing Degree Days 32 (Base 50)    
Moisture  
Dew Point 77 °F    
Average Humidity 85    
Maximum Humidity 100    
Minimum Humidity 74    
Precipitation  
Precipitation 2.83 in 0.17 in - ()
Sea Level Pressure  
Sea Level Pressure 29.53 in    
Wind  
Wind Speed 23 mph ()    
Max Wind Speed 47 mph    
Max Gust Speed 68 mph    
Visibility 5.7 miles    
Events Rain , Thunderstorm    
Averages and records for this station are not official NWS values.
T = Trace of Precipitation, MM = Missing Value Source: Averaged Metar Reports

Daily Weather History Graph

Daily Weather History Graph

Search for Another Location

Airport:

Trip Planner

Search our weather history database for the weather conditions in past years. The results will help you decide how hot, cold, wet, or windy it might be!

Date:

Astronomy

Aug. 30, 2010 Rise Set
Actual Time 5:57 AM AST 6:28 PM AST
Civil Twilight 5:35 AM AST 6:50 PM AST
Nautical Twilight 5:09 AM AST 7:15 PM AST
Astronomical Twilight 4:43 AM AST 7:42 PM AST
Moon 10:06 PM AST (8/30) 10:38 AM AST (8/30)
Length of Visible Light 13h 14m
Length of Day
12h 30m
Waning Gibbous, 70% of the Moon is Illuminated
Aug 30
Waning Gibbous
Sep 1
Last Quarter
Sep 8
New
Sep 15
First Quarter
Sep 23
Full

Hourly Weather History & Observations

Time (AST) Temp. Heat Index Dew Point Humidity Pressure Visibility Wind Dir Wind Speed Gust Speed Precip Events Conditions
1:00 AM 84.2 °F 96.1 °F 78.8 °F 84% 29.59 in 6.2 mi North 16.1 mph - N/A   Mostly Cloudy
2:00 AM 84 °F - 77 °F 75% 29.56 in 12 mi North 19.6 mph - -   Mostly Cloudy
2:00 AM 84.2 °F 94.1 °F 77.0 °F 79% 29.56 in 6.2 mi North 19.6 mph 33.4 mph N/A   Mostly Cloudy
3:00 AM 82.4 °F 90.9 °F 77.0 °F 84% 29.47 in 6.2 mi North 24.2 mph 40.3 mph N/A   Mostly Cloudy
4:00 AM 78.8 °F - 75.2 °F 89% 29.42 in 6.2 mi NNW 26.5 mph 40.3 mph N/A Rain Light Rain Showers
5:00 AM 81 °F - 76 °F 80% 29.36 in 12 mi NNW 29.9 mph - -   Mostly Cloudy
5:00 AM 80.6 °F 87.1 °F 77.0 °F 89% 29.36 in 6.2 mi NNW 26.5 mph 42.6 mph N/A Rain Light Rain Showers
6:00 AM 80.6 °F 87.1 °F 77.0 °F 89% 29.27 in 6.2 mi NNW 24.2 mph 38.0 mph N/A   Mostly Cloudy
7:00 AM 82.4 °F 92.4 °F 78.8 °F 89% 29.18 in 6.2 mi NW 41.4 mph 61.0 mph N/A   Mostly Cloudy
8:00 AM 82 °F - 77 °F 80% 29.13 in 6 mi West 47.2 mph - -   Overcast
8:00 AM 82.4 °F 90.9 °F 77.0 °F 84% 29.12 in 6.2 mi West 47.2 mph 67.9 mph N/A   Mostly Cloudy
9:00 AM 82.4 °F 90.9 °F 77.0 °F 84% 2.72 in 3.7 mi SW 29.9 mph 52.9 mph N/A   Mostly Cloudy
10:00 AM 80.6 °F 89.3 °F 80.6 °F 100% 29.33 in 3.7 mi SW 39.1 mph 58.7 mph N/A Rain Heavy Rain Showers
11:00 AM 81 °F - 79 °F 92% 29.43 in 4 mi WSW 35.7 mph - -   Overcast
11:00 AM 80.6 °F 88.1 °F 78.8 °F 94% 29.42 in 3.7 mi SW 35.7 mph 54.1 mph N/A Rain Rain Showers
12:00 PM 78.8 °F - 78.8 °F 100% 29.53 in 0.6 mi SSW 33.4 mph 52.9 mph N/A Rain Heavy Rain Showers
1:00 PM 77.0 °F - 77.0 °F 100% 29.56 in 0.6 mi SSW 31.1 mph 46.0 mph N/A Rain Heavy Rain Showers
2:00 PM 78 °F - 73 °F 81% 29.61 in 4 mi SSW 24.2 mph - - Rain Heavy Rain Showers
2:00 PM 77.0 °F - 73.4 °F 89% 29.59 in 3.7 mi SSW 24.2 mph 43.7 mph N/A Rain Rain Showers
3:00 PM 77.0 °F - 73.4 °F 89% 29.65 in 1.9 mi SW 28.8 mph 50.6 mph N/A Rain Heavy Rain Showers
4:00 PM 77.0 °F - 73.4 °F 89% 29.68 in 3.1 mi South 16.1 mph 28.8 mph N/A Rain Rain Showers
5:00 PM 83 °F - 76 °F 74% 29.69 in 6 mi South 24.2 mph - - Rain Light Rain
5:00 PM 84.2 °F 92.3 °F 75.2 °F 74% 29.68 in 6.2 mi South 23.0 mph 36.8 mph N/A Rain Light Rain
6:00 PM 78.8 °F - 75.2 °F 89% 29.71 in 1.2 mi SSE 18.4 mph 31.1 mph N/A Thunderstorm Heavy Thunderstorm
7:00 PM 84.2 °F 96.1 °F 78.8 °F 84% 29.71 in 6.2 mi South 20.7 mph - N/A   Mostly Cloudy
8:00 PM 85 °F - 79 °F 76% 29.76 in 12 mi South 21.9 mph - -   Partly Cloudy
8:00 PM 84.2 °F 96.1 °F 78.8 °F 84% 29.74 in 6.2 mi South 20.7 mph - N/A   Mostly Cloudy
9:00 PM 86.0 °F 99.3 °F 78.8 °F 79% 29.77 in 6.2 mi South 18.4 mph 32.2 mph N/A   Partly Cloudy
10:00 PM 84.2 °F 96.1 °F 78.8 °F 84% 29.80 in 6.2 mi SSE 20.7 mph 33.4 mph N/A   Partly Cloudy
11:00 PM 85 °F - 79 °F 77% 29.82 in 12 mi South 21.9 mph - -   Overcast